Location: Elstree
(51.6403°N, 0.2969°W)
Time: 13:24:00
(UTC+00:00)

Cosmos 1933 Rocket - Pass Details

Date: 03 March 2021
Orbit: 607 x 629 km, 82.5° (Epoch: 13 April)

Event Time Altitude Azimuth Distance (km) Brightness Sun altitude
Rises 18:57:19 0° 176° (S) 2,863 6.9 -12.0°
Reaches altitude 10° 18:59:33 10° 171° (S) 1,966 6.0 -12.3°
Maximum altitude 19:03:47 53° 95° (E) 758 3.6 -13.0°
Drops below altitude 10° 19:08:05 10° 19° (NNE) 1,995 6.0 -13.6°
Sets 19:10:21 0° 14° (NNE) 2,910 6.9 -14.0°
